SL-19 DEB, 23483

Orbit data source: Space-Track

SL-19 DEB, 23483 is space debris in LEO originally from a launch on Mon, 26 Dec 1994 UTC launched from the Tyuratam Missile And Space Complex (TTMTR). Debris objects in space refer to the collection of defunct objects orbiting the Earth. Examples of debris include non-operational satellites, rocket bodies, and fragments generated from explosions, collisions, or faulty payload assembly.

Loading next visibility...
Identifier
23483, 1994-085F
Orbit
LEO
Country
Flag of CISCIS
Related business
Manufacturer
Unknown
Mission
Spacecraft
Bus & Motor
Unknown
Mass
Unknown
Launch date (UTC)
1994-12-26 (31 years ago)
Launch vehicle
Unknown
Launch site
Tyuratam Missile And Space Complex (TTMTR)
Object type
Payload
Rocket body
Debris
Shape & HBR
Unknown
Radar Cross Section
0.810 m², Medium (>0.1 m² and < 1m²)

Expand to show TLE details & history
Last TLE update: 7 hours ago

TLE from 7 hours ago
0 SL-19 DEB
1 23483U 94085F   25261.28379841 -.00000040  00000-0  62394-4 0  9997
2 23483  64.7265 135.4669 0199641 215.4318 253.6528 11.22866849259969
Epoch: 2025-09-18T06:48Z
TLE epoch observation values (Epoch: 2025-09-18T06:48:40.182Z)
Latitude
60.01014°
Longitude
161.3287°
Altitude
2,105.478 km
Speed
6.841 km/s
True Right ascension
17h 23m 46s
True Declination
59° 53' 05"
Sunlit
Object was in daylight at epoch
Visualization orbit readout
Latitude
Unknown
Longitude
Unknown
Altitude
Unknown
Speed
Unknown
Apparent Right ascension
Unknown
Apparent Declination
Unknown
Sunlit
N/A
Visualization observer readout
Local Sidereal Time
06:14:18
Azimuth
Unknown
Elevation
Unknown
Doppler factor
Unknown
Orbital elements
Apogee altitude
2,212.797 km
Perigee altitude
1,876.49 km
Semi-major axis
8,422.781 km
Eccentricity
0.01996
Inclination
64.7265°
RAAN
135.4669°
Arg. of periapsis
215.4318°
True anomaly
251.47341°
Mean anomaly
253.6528°
Eccentric anomaly
252.56151°
Mean motion
2.80776 °/min
Orbital period
128.22 mins
BSTAR
0.000062394
Loading maneuver chart data...
Computing Atmospheric mass density...
Loading historical data...
Loading historical data...
Loading historical data...
Loading historical data...
Loading historical data...
Loading historical data...
Loading historical data...

Documentation

Showing up to 5 results
|